Location: Malvern Link
(52.1333°N, 2.3000°W)
Time: 23:36:44
(UTC+00:00)

Cosmos 1634 Rocket - Visible Passes

Search period start: 23 January 2021 00:00
Search period end: 02 February 2021 00:00
Orbit: 959 x 993 km, 82.9° (Epoch: 23 January)

Date Brightness Start Highest point End Pass type
(mag) Time Alt. Az. Time Alt. Az. Time Alt. Az.
23 Jan 5.9 05:07:00 10° SE 05:12:06 28° E 05:17:13 10° NNE visible
23 Jan 4.0 06:50:59 10° SSW 06:57:04 61° WNW 07:03:13 10° N visible
23 Jan 4.8 17:40:34 10° NNW 17:46:39 56° W 17:52:46 10° SSW visible
23 Jan 7.1 19:29:17 10° WNW 19:30:40 11° WNW 19:32:02 10° W visible
24 Jan 5.0 05:31:30 10° SSE 05:37:19 46° E 05:43:10 10° NNE visible
24 Jan 4.4 07:17:09 10° SW 07:22:50 38° WNW 07:28:36 10° N visible
24 Jan 5.8 18:06:25 10° NNW 18:11:58 34° W 18:17:31 10° SSW visible
25 Jan 6.7 04:15:08 10° ESE 04:18:24 15° ENE 04:21:40 10° NE visible
25 Jan 4.2 05:56:35 10° S 06:02:42 75° E 06:08:54 10° NNE visible
25 Jan 6.6 18:32:35 10° NNW 18:37:06 21° W 18:41:38 10° SW visible
26 Jan 6.1 04:38:35 10° SE 04:43:25 25° E 04:48:17 10° NNE visible
26 Jan 3.9 06:22:07 10° SSW 06:28:16 69° WNW 06:34:29 10° N visible
26 Jan 4.7 17:11:45 10° NNW 17:17:55 63° W 17:24:07 10° S visible
26 Jan 7.0 18:59:35 10° NW 19:02:04 13° WNW 19:04:33 10° W visible
27 Jan 5.2 05:02:56 10° SSE 05:08:36 40° E 05:14:20 10° NNE visible
27 Jan 4.3 06:48:10 10° SW 06:53:59 43° WNW 06:59:54 10° N visible
27 Jan 5.6 17:37:32 10° NNW 17:43:16 39° W 17:49:01 10° SSW visible
28 Jan 6.8 03:47:08 10° E 03:49:47 13° ENE 03:52:26 10° NE visible
28 Jan 4.3 05:27:51 10° S 05:33:57 66° E 05:40:07 10° NNE visible
28 Jan 4.8 07:14:44 10° WSW 07:19:54 27° WNW 07:25:08 10° N visible
28 Jan 6.4 18:03:36 10° NNW 18:08:27 24° W 18:13:18 10° SW visible
29 Jan 6.2 04:10:13 10° SE 04:14:46 22° E 04:19:20 10° NNE visible
29 Jan 3.9 05:53:18 10° SSW 05:59:28 78° W 06:05:43 10° N visible
29 Jan 6.8 18:30:16 10° NW 18:33:28 15° WNW 18:36:39 10° WSW visible
30 Jan 5.4 04:34:23 10° SSE 04:39:54 36° E 04:45:28 10° NNE visible
30 Jan 4.2 06:19:12 10° SSW 06:25:09 48° WNW 06:31:10 10° N visible
31 Jan 6.9 03:19:25 10° E 03:21:10 11° ENE 03:22:56 10° NE visible
31 Jan 4.5 04:59:11 10° S 05:05:12 59° E 05:11:18 10° NNE visible
31 Jan 4.7 06:45:38 10° SW 06:51:01 31° WNW 06:56:28 10° N visible
31 Jan 6.3 17:34:39 10° NNW 17:39:47 27° W 17:44:56 10° SW visible
01 Feb 6.3 03:41:54 10° ESE 03:46:06 19° ENE 03:50:20 10° NE visible
01 Feb 3.9 05:24:29 10° S 05:30:40 87° W 05:36:57 10° N visible
01 Feb 5.2 07:12:40 10° WSW 07:17:04 20° WNW 07:21:31 10° NNW visible
01 Feb 6.7 18:01:06 10° NW 18:04:51 17° WNW 18:08:35 10° WSW visible
